CZ-6A DEB, 56252

Orbit data source: Space-Track

CZ-6A DEB, 56252 is space debris in SSO originally from a launch on Fri, 11 Nov 2022 UTC launched from the Taiyaun Space Center, China (TSC). Debris objects in space refer to the collection of defunct objects orbiting the Earth. Examples of debris include non-operational satellites, rocket bodies, and fragments generated from explosions, collisions, or faulty payload assembly.

Loading next visibility...
Identifier
56252, 2022-151ABU
Orbit
SSO
Country
Flag of CNCN / PRC
Related business
Manufacturer
SAST
Mission
Spacecraft
Bus & Motor
Unknown
Mass
Unknown
Launch date (UTC)
2022-11-11 (4 years ago)
Launch vehicle
Unknown
Launch site
Taiyaun Space Center, China (TSC)
Object type
Payload
Rocket body
Debris
Shape & HBR
Unknown shape, 0.1 m
Radar Cross Section
Medium (>0.1 m² and <1 m²)

Expand to show TLE details & history
Last TLE update: 1 day ago

TLE from 1 day ago
0 CZ-6A DEB
1 56252U 22151ABU 26219.41185397  .00000298  00000-0  20672-3 0  9998
2 56252  98.8777 205.4541 0083750 209.2834 150.3625 14.04718804173460
Epoch: 2026-08-07T09:53Z
TLE epoch observation values (Epoch: 2026-08-07T09:53:04.183Z)
Latitude
-0.00005°
Longitude
101.24875°
Altitude
933.338 km
Speed
7.358 km/s
True Right ascension
13h 41m 48s
True Declination
0° 00' 00"
Sunlit
Object was in daylight at epoch
Visualization orbit readout
Latitude
Unknown
Longitude
Unknown
Altitude
Unknown
Speed
Unknown
Apparent Right ascension
Unknown
Apparent Declination
Unknown
Sunlit
N/A
Visualization observer readout
Local Sidereal Time
00:55:25
Azimuth
Unknown
Elevation
Unknown
Doppler factor
Unknown
Orbital elements
Apogee altitude
935.43 km
Perigee altitude
813.945 km
Semi-major axis
7,252.824 km
Eccentricity
0.00838
Inclination
98.8777°
RAAN
205.4541°
Arg. of periapsis
209.2834°
True anomaly
150.8328°
Mean anomaly
150.3625°
Eccentric anomaly
150.59808°
Mean motion
3.51384 °/min
Orbital period
102.45 mins
BSTAR
0.00020672
Loading maneuver chart data...
Computing Atmospheric mass density...
Loading historical data...
Loading historical data...
Loading historical data...
Loading historical data...
Loading historical data...
Loading historical data...
Loading historical data...

Documentation

Showing up to 5 results
|